QPF
0.01 0.02 0.03 0.02 0.02 0.03 0.05 0.07 0.07 0.08 0.10 0.14 0.13 0.10 0.06 0.04 0.04 0.03 0.03 0.03 0.04 0.04 0.03 0.02 0.02 0.03 0.04 0.04 0.03 0.02 0.03 0.03 0.02 0.03 0.03 0.03 0.04 0.06 0.06 0.06 0.05 0.04 0.04
0.01 0.02 0.02 0.02 0.01 0.03 0.04 0.05 0.06 0.08 0.08 0.11 0.12 0.09 0.08 0.05 0.04 0.03 0.03 0.02 0.03 0.03 0.02 0.02 0.02 0.02 0.03 0.03 0.03 0.03 0.03 0.03 0.03 0.04 0.04 0.05 0.05 0.05 0.04 0.03 0.03 0.04 0.04
0.01 0.01 0.01 0.01 0.01 0.02 0.03 0.04 0.04 0.06 0.07 0.09 0.10 0.08 0.07 0.06 0.04 0.03 0.03 0.02 0.02 0.02 0.01 0.01 0.01 0.01 0.01 0.02 0.02 0.02 0.01 0.02 0.03 0.04 0.05 0.05 0.04 0.03 0.02 0.01 0.02 0.03 0.03
0.00 0.01 0.02 0.01 0.01 0.01 0.01 0.02 0.03 0.04 0.06 0.07 0.09 0.08 0.07 0.06 0.04 0.03 0.02 0.02 0.01 0.01 0.01 0.01 0.01 0.01 0.01 0.01 0.01 0.01 0.01 0.01 0.01 0.02 0.04 0.05 0.03 0.02 0.01 0.01 0.01 0.02 0.02
0.00 0.01 0.02 0.01 0.01 0.01 0.01 0.01 0.02 0.03 0.04 0.04 0.05 0.07 0.07 0.05 0.05 0.03 0.02 0.01 0.01 0.00 0.00 0.00 0.00 0.00 0.00 0.01 0.01 0.01 0.01 0.01 0.01 0.01 0.01 0.01 0.01 0.01 0.01 0.01 0.02 0.02 0.01
0.01 0.01 0.01 0.01 0.01 0.01 0.01 0.01 0.01 0.02 0.03 0.03 0.03 0.03 0.05 0.05 0.04 0.03 0.02 0.01 0.01 0.01 0.00 0.00 0.00 0.00 0.00 0.00 0.01 0.01 0.01 0.01 0.01 0.02 0.02 0.01 0.01 0.01 0.01 0.01 0.01 0.01 0.01
0.01 0.01 0.01 0.01 0.01 0.01 0.01 0.01 0.01 0.01 0.01 0.02 0.03 0.02 0.02 0.02 0.02 0.02 0.02 0.01 0.01 0.00 0.00 0.00 0.00 0.00 0.00 0.00 0.01 0.01 0.01 0.01 0.01 0.02 0.04 0.02 0.02 0.02 0.02 0.03 0.02 0.01 0.00
0.01 0.01 0.01 0.01 0.01 0.01 0.01 0.01 0.01 0.01 0.01 0.01 0.02 0.03 0.02 0.01 0.01 0.01 0.01 0.01 0.00 0.00 0.00 0.00 0.00 0.00 0.01 0.01 0.01 0.01 0.01 0.01 0.01 0.01 0.01 0.02 0.02 0.02 0.02 0.03 0.02 0.02 0.01
0.01 0.01 0.00 0.00 0.00 0.01 0.00 0.00 0.00 0.00 0.00 0.00 0.00 0.01 0.02 0.01 0.01 0.00 0.00 0.00 0.00 0.00 0.00 0.00 0.01 0.00 0.01 0.01 0.01 0.01 0.02 0.01 0.01 0.01 0.01 0.01 0.01 0.01 0.01 0.01 0.01 0.02 0.02
0.00 0.00 0.00 0.00 0.00 0.00 0.00 0.00 0.00 0.00 0.00 0.00 0.00 0.00 0.00 0.01 0.01 0.01 0.00 0.00 0.00 0.00 0.00 0.00 0.01 0.01 0.01 0.01 0.01 0.01 0.02 0.02 0.01 0.01 0.01 0.01 0.01 0.01 0.01 0.01 0.01 0.01 0.02
0.00 0.00 0.00 0.00 0.00 0.00 0.00 0.00 0.00 0.00 0.00 0.00 0.00 0.00 0.00 0.00 0.00 0.00 0.00 0.00 0.00 0.01 0.01 0.01 0.01 0.01 0.01 0.01 0.01 0.01 0.01 0.01 0.01 0.01 0.01 0.01 0.01 0.01 0.01 0.01 0.01 0.01 0.01
0.00 0.00 0.00 0.00 0.00 0.00 0.00 0.00 0.00 0.00 0.00 0.00 0.00 0.00 0.00 0.00 0.00 0.00 0.00 0.00 0.00 0.00 0.00 0.00 0.00 0.00 0.00 0.00 0.00 0.00 0.00 0.00 0.00 0.00 0.01 0.01 0.01 0.01 0.01 0.01 0.01 0.01 0.01
0.00 0.00 0.00 0.00 0.00 0.00 0.00 0.00 0.00 0.00 0.00 0.01 0.01 0.00 0.00 0.00 0.00 0.00 0.00 0.01 0.00 0.00 0.00 0.00 0.00 0.00 0.00 0.00 0.00 0.00 0.00 0.00 0.00 0.00 0.00 0.01 0.01 0.01 0.01 0.01 0.01 0.01 0.01
0.00 0.00 0.00 0.00 0.00 0.00 0.00 0.00 0.00 0.00 0.00 0.01 0.01 0.01 0.01 0.01 0.01 0.01 0.00 0.01 0.00 0.00 0.00 0.00 0.00 0.00 0.00 0.00 0.00 0.00 0.00 0.00 0.00 0.00 0.00 0.01 0.01 0.01 0.01 0.01 0.01 0.01 0.01
0.00 0.01 0.01 0.00 0.00 0.00 0.00 0.00 0.00 0.00 0.01 0.01 0.01 0.01 0.01 0.00 0.00 0.00 0.00 0.00 0.00 0.00 0.00 0.00 0.00 0.00 0.00 0.00 0.00 0.00 0.00 0.00 0.00 0.00 0.00 0.01 0.01 0.01 0.01 0.01 0.01 0.01 0.01
0.01 0.01 0.01 0.00 0.00 0.00 0.00 0.00 0.01 0.01 0.01 0.01 0.01 0.01 0.00 0.00 0.00 0.00 0.00 0.00 0.00 0.00 0.00 0.00 0.00 0.00 0.00 0.00 0.00 0.00 0.00 0.00 0.00 0.00 0.00 0.01 0.01 0.01 0.01 0.01 0.01 0.01 0.02
0.01 0.01 0.01 0.00 0.00 0.00 0.00 0.00 0.01 0.01 0.01 0.00 0.00 0.00 0.00 0.00 0.00 0.00 0.00 0.00 0.00 0.00 0.00 0.00 0.00 0.00 0.00 0.00 0.00 0.00 0.00 0.00 0.00 0.00 0.00 0.01 0.01 0.01 0.01 0.01 0.01 0.01 0.02
0.01 0.01 0.01 0.01 0.01 0.00 0.00 0.00 0.00 0.01 0.01 0.01 0.00 0.00 0.00 0.00 0.00 0.00 0.00 0.00 0.00 0.00 0.00 0.00 0.00 0.00 0.00 0.00 0.00 0.00 0.00 0.00 0.00 0.00 0.00 0.01 0.01 0.01 0.01 0.01 0.02 0.02 0.02
0.01 0.01 0.01 0.01 0.00 0.00 0.00 0.00 0.00 0.00 0.01 0.01 0.01 0.00 0.00 0.00 0.00 0.00 0.00 0.00 0.00 0.00 0.00 0.00 0.00 0.00 0.00 0.00 0.00 0.00 0.00 0.00 0.00 0.00 0.00 0.01 0.01 0.02 0.02 0.02 0.02 0.02 0.01
0.01 0.01 0.00 0.00 0.00 0.00 0.00 0.00 0.00 0.00 0.00 0.00 0.01 0.01 0.01 0.01 0.00 0.00 0.00 0.00 0.00 0.00 0.00 0.00 0.00 0.00 0.00 0.00 0.00 0.00 0.00 0.01 0.01 0.01 0.01 0.01 0.01 0.01 0.02 0.02 0.02 0.02 0.01
0.00 0.00 0.00 0.00 0.00 0.00 0.00 0.00 0.00 0.00 0.00 0.00 0.00 0.01 0.01 0.01 0.01 0.01 0.01 0.01 0.01 0.01 0.01 0.00 0.00 0.00 0.00 0.00 0.00 0.00 0.00 0.01 0.01 0.01 0.01 0.01 0.01 0.01 0.02 0.02 0.02 0.02 0.02
0.00 0.00 0.00 0.00 0.00 0.00 0.00 0.00 0.00 0.00 0.00 0.00 0.00 0.00 0.00 0.01 0.01 0.01 0.01 0.01 0.01 0.01 0.01 0.00 0.01 0.00 0.00 0.00 0.00 0.00 0.00 0.01 0.01 0.01 0.01 0.01 0.01 0.01 0.01 0.01 0.01 0.01 0.01
0.00 0.00 0.00 0.00 0.00 0.00 0.00 0.00 0.00 0.00 0.00 0.00 0.00 0.00 0.00 0.00 0.01 0.01 0.01 0.01 0.01 0.01 0.01 0.00 0.00 0.00 0.00 0.00 0.00 0.00 0.01 0.01 0.01 0.01 0.01 0.01 0.00 0.00 0.00 0.00 0.01 0.01 0.01
0.00 0.00 0.00 0.00 0.00 0.00 0.00 0.00 0.00 0.00 0.00 0.00 0.01 0.00 0.00 0.00 0.00 0.00 0.01 0.01 0.00 0.00 0.01 0.00 0.00 0.00 0.00 0.00 0.00 0.00 0.00 0.00 0.01 0.01 0.00 0.00 0.00 0.00 0.00 0.00 0.01 0.01 0.01
0.00 0.00 0.00 0.00 0.00 0.00 0.00 0.00 0.00 0.00 0.00 0.00 0.00 0.00 0.00 0.00 0.00 0.00 0.00 0.00 0.00 0.00 0.00 0.00 0.00 0.00 0.00 0.00 0.01 0.00 0.00 0.00 0.00 0.00 0.00 0.00 0.00 0.00 0.00 0.00 0.01 0.01 0.01
0.00 0.00 0.00 0.00 0.00 0.00 0.00 0.00 0.00 0.00 0.00 0.00 0.00 0.00 0.00 0.00 0.00 0.00 0.00 0.00 0.01 0.01 0.01 0.00 0.00 0.00 0.00 0.01 0.01 0.00 0.00 0.00 0.00 0.00 0.00 0.00 0.01 0.01 0.01 0.01 0.01 0.01 0.02
MSLP
1019.02 1019.55 1020.11 1020.65 1021.14 1021.57 1021.91 1022.19 1022.41 1022.59 1022.74 1022.86 1022.95 1023.00 1023.00 1022.94 1022.81 1022.62 1022.39 1022.14 1021.88 1021.64 1021.42 1021.23 1021.06 1020.88 1020.67 1020.41 1020.08 1019.66 1019.18 1018.63 1018.06 1017.48 1016.92 1016.42 1015.98 1015.61 1015.30 1015.05 1014.84 1014.66 1014.49
1018.64 1019.25 1019.90 1020.51 1021.05 1021.49 1021.83 1022.10 1022.31 1022.49 1022.66 1022.82 1022.95 1023.05 1023.09 1023.06 1022.95 1022.77 1022.53 1022.28 1022.02 1021.80 1021.62 1021.48 1021.36 1021.25 1021.10 1020.90 1020.62 1020.25 1019.81 1019.31 1018.78 1018.25 1017.75 1017.29 1016.89 1016.53 1016.22 1015.95 1015.70 1015.46 1015.24
1018.31 1019.00 1019.72 1020.40 1020.97 1021.43 1021.77 1022.02 1022.22 1022.40 1022.57 1022.75 1022.92 1023.06 1023.14 1023.14 1023.05 1022.88 1022.65 1022.40 1022.16 1021.96 1021.80 1021.70 1021.63 1021.56 1021.47 1021.31 1021.07 1020.75 1020.36 1019.92 1019.46 1019.00 1018.57 1018.18 1017.83 1017.51 1017.21 1016.91 1016.61 1016.30 1016.00
1018.05 1018.80 1019.58 1020.30 1020.91 1021.37 1021.70 1021.94 1022.11 1022.28 1022.45 1022.64 1022.83 1023.00 1023.11 1023.14 1023.08 1022.93 1022.72 1022.49 1022.27 1022.09 1021.96 1021.89 1021.85 1021.81 1021.74 1021.62 1021.42 1021.14 1020.81 1020.43 1020.05 1019.69 1019.35 1019.04 1018.76 1018.48 1018.19 1017.87 1017.52 1017.15 1016.76
1017.86 1018.64 1019.46 1020.20 1020.82 1021.28 1021.59 1021.80 1021.96 1022.10 1022.27 1022.46 1022.67 1022.86 1023.01 1023.07 1023.04 1022.92 1022.74 1022.53 1022.34 1022.18 1022.07 1022.02 1021.99 1021.97 1021.92 1021.82 1021.65 1021.41 1021.13 1020.83 1020.54 1020.26 1020.02 1019.81 1019.60 1019.38 1019.11 1018.78 1018.39 1017.95 1017.49
1017.71 1018.50 1019.33 1020.07 1020.68 1021.11 1021.40 1021.58 1021.71 1021.84 1022.00 1022.20 1022.42 1022.64 1022.81 1022.91 1022.93 1022.85 1022.71 1022.53 1022.36 1022.22 1022.13 1022.09 1022.07 1022.05 1022.01 1021.92 1021.77 1021.57 1021.34 1021.11 1020.90 1020.72 1020.57 1020.44 1020.31 1020.14 1019.90 1019.57 1019.15 1018.67 1018.14
1017.58 1018.36 1019.15 1019.87 1020.45 1020.85 1021.11 1021.26 1021.36 1021.47 1021.63 1021.83 1022.08 1022.33 1022.54 1022.69 1022.75 1022.72 1022.62 1022.49 1022.35 1022.23 1022.15 1022.11 1022.09 1022.07 1022.02 1021.94 1021.80 1021.63 1021.45 1021.28 1021.13 1021.03 1020.96 1020.90 1020.83 1020.70 1020.49 1020.17 1019.74 1019.23 1018.66
1017.45 1018.18 1018.92 1019.59 1020.11 1020.47 1020.69 1020.81 1020.89 1021.00 1021.16 1021.38 1021.65 1021.94 1022.20 1022.40 1022.51 1022.54 1022.49 1022.40 1022.30 1022.20 1022.13 1022.09 1022.07 1022.04 1021.99 1021.90 1021.78 1021.64 1021.49 1021.36 1021.26 1021.21 1021.19 1021.18 1021.14 1021.05 1020.85 1020.54 1020.13 1019.61 1019.04
1017.30 1017.96 1018.63 1019.22 1019.67 1019.98 1020.15 1020.25 1020.32 1020.43 1020.60 1020.85 1021.16 1021.49 1021.80 1022.05 1022.22 1022.31 1022.32 1022.27 1022.20 1022.13 1022.08 1022.04 1022.01 1021.98 1021.92 1021.84 1021.73 1021.60 1021.47 1021.37 1021.30 1021.27 1021.27 1021.27 1021.25 1021.16 1020.98 1020.69 1020.29 1019.79 1019.24
1017.15 1017.71 1018.28 1018.78 1019.16 1019.40 1019.54 1019.61 1019.68 1019.80 1019.99 1020.27 1020.62 1020.99 1021.35 1021.66 1021.89 1022.03 1022.09 1022.09 1022.06 1022.02 1021.98 1021.95 1021.93 1021.89 1021.84 1021.76 1021.66 1021.55 1021.43 1021.34 1021.27 1021.24 1021.23 1021.22 1021.19 1021.09 1020.90 1020.62 1020.24 1019.79 1019.28
1017.02 1017.47 1017.93 1018.33 1018.62 1018.79 1018.89 1018.94 1019.01 1019.14 1019.36 1019.67 1020.05 1020.46 1020.86 1021.21 1021.49 1021.68 1021.80 1021.85 1021.86 1021.85 1021.83 1021.82 1021.80 1021.78 1021.74 1021.67 1021.58 1021.48 1021.37 1021.28 1021.20 1021.15 1021.11 1021.07 1021.00 1020.87 1020.67 1020.40 1020.04 1019.62 1019.17
1016.93 1017.27 1017.61 1017.89 1018.09 1018.20 1018.25 1018.29 1018.36 1018.50 1018.74 1019.07 1019.47 1019.90 1020.33 1020.72 1021.03 1021.27 1021.43 1021.52 1021.58 1021.60 1021.62 1021.63 1021.64 1021.63 1021.61 1021.56 1021.49 1021.40 1021.30 1021.20 1021.11 1021.03 1020.95 1020.86 1020.74 1020.58 1020.36 1020.08 1019.74 1019.36 1018.95
1016.90 1017.12 1017.34 1017.51 1017.61 1017.66 1017.68 1017.70 1017.76 1017.91 1018.15 1018.49 1018.89 1019.33 1019.77 1020.17 1020.51 1020.78 1020.98 1021.11 1021.21 1021.28 1021.33 1021.37 1021.41 1021.43 1021.43 1021.41 1021.35 1021.28 1021.19 1021.09 1020.99 1020.88 1020.76 1020.63 1020.47 1020.27 1020.02 1019.73 1019.40 1019.04 1018.67
1016.92 1017.03 1017.13 1017.19 1017.22 1017.20 1017.18 1017.18 1017.24 1017.38 1017.61 1017.93 1018.32 1018.74 1019.17 1019.57 1019.92 1020.21 1020.44 1020.62 1020.76 1020.87 1020.97 1021.05 1021.12 1021.17 1021.20 1021.20 1021.17 1021.11 1021.04 1020.94 1020.83 1020.70 1020.56 1020.39 1020.19 1019.96 1019.69 1019.38 1019.05 1018.71 1018.35
1016.97 1016.97 1016.97 1016.94 1016.89 1016.82 1016.76 1016.74 1016.78 1016.91 1017.12 1017.41 1017.76 1018.15 1018.55 1018.93 1019.28 1019.58 1019.84 1020.06 1020.24 1020.40 1020.54 1020.66 1020.77 1020.85 1020.90 1020.92 1020.92 1020.88 1020.82 1020.73 1020.62 1020.49 1020.33 1020.14 1019.92 1019.66 1019.37 1019.05 1018.72 1018.37 1018.02
1016.99 1016.91 1016.82 1016.72 1016.61 1016.50 1016.41 1016.37 1016.39 1016.49 1016.66 1016.91 1017.22 1017.56 1017.91 1018.27 1018.61 1018.92 1019.20 1019.46 1019.69 1019.89 1020.07 1020.23 1020.36 1020.47 1020.54 1020.58 1020.59 1020.57 1020.52 1020.44 1020.34 1020.21 1020.06 1019.86 1019.63 1019.37 1019.06 1018.74 1018.39 1018.04 1017.69
1016.96 1016.81 1016.66 1016.49 1016.34 1016.20 1016.09 1016.03 1016.03 1016.10 1016.24 1016.44 1016.69 1016.98 1017.29 1017.61 1017.94 1018.25 1018.56 1018.85 1019.12 1019.36 1019.58 1019.77 1019.93 1020.05 1020.13 1020.17 1020.19 1020.17 1020.13 1020.07 1019.98 1019.87 1019.72 1019.53 1019.31 1019.04 1018.74 1018.41 1018.06 1017.70 1017.34
1016.83 1016.64 1016.43 1016.23 1016.05 1015.89 1015.77 1015.70 1015.69 1015.73 1015.83 1015.99 1016.19 1016.42 1016.69 1016.98 1017.30 1017.61 1017.94 1018.26 1018.56 1018.85 1019.10 1019.31 1019.48 1019.60 1019.68 1019.72 1019.73 1019.71 1019.67 1019.62 1019.54 1019.44 1019.31 1019.14 1018.93 1018.67 1018.38 1018.05 1017.70 1017.33 1016.97
1016.61 1016.38 1016.14 1015.92 1015.72 1015.55 1015.43 1015.36 1015.34 1015.37 1015.44 1015.56 1015.71 1015.91 1016.14 1016.41 1016.71 1017.03 1017.37 1017.71 1018.05 1018.35 1018.62 1018.85 1019.02 1019.13 1019.20 1019.23 1019.22 1019.20 1019.16 1019.11 1019.04 1018.96 1018.84 1018.69 1018.50 1018.25 1017.97 1017.65 1017.30 1016.94 1016.58
1016.30 1016.05 1015.79 1015.56 1015.35 1015.19 1015.08 1015.01 1014.99 1015.01 1015.07 1015.16 1015.28 1015.45 1015.66 1015.90 1016.19 1016.52 1016.87 1017.22 1017.57 1017.89 1018.17 1018.38 1018.54 1018.65 1018.70 1018.70 1018.69 1018.65 1018.61 1018.56 1018.50 1018.43 1018.34 1018.20 1018.02 1017.80 1017.53 1017.22 1016.88 1016.52 1016.17
1015.95 1015.68 1015.41 1015.17 1014.97 1014.81 1014.71 1014.66 1014.64 1014.66 1014.71 1014.79 1014.90 1015.05 1015.24 1015.47 1015.75 1016.07 1016.42 1016.78 1017.12 1017.44 1017.70 1017.91 1018.05 1018.14 1018.17 1018.16 1018.13 1018.08 1018.04 1018.00 1017.95 1017.90 1017.82 1017.70 1017.54 1017.33 1017.07 1016.77 1016.45 1016.11 1015.77
1015.60 1015.31 1015.03 1014.78 1014.59 1014.44 1014.35 1014.31 1014.30 1014.33 1014.38 1014.46 1014.56 1014.70 1014.88 1015.10 1015.37 1015.68 1016.01 1016.35 1016.68 1016.98 1017.22 1017.40 1017.52 1017.58 1017.59 1017.57 1017.54 1017.50 1017.46 1017.43 1017.40 1017.36 1017.30 1017.21 1017.07 1016.87 1016.63 1016.35 1016.04 1015.71 1015.38
1015.29 1014.98 1014.68 1014.43 1014.24 1014.10 1014.02 1013.99 1013.99 1014.03 1014.09 1014.17 1014.27 1014.40 1014.57 1014.78 1015.04 1015.32 1015.63 1015.94 1016.23 1016.49 1016.70 1016.84 1016.93 1016.97 1016.97 1016.94 1016.91 1016.88 1016.86 1016.85 1016.85 1016.84 1016.80 1016.73 1016.61 1016.44 1016.22 1015.95 1015.66 1015.35 1015.04
1015.03 1014.70 1014.40 1014.14 1013.94 1013.81 1013.73 1013.70 1013.72 1013.76 1013.82 1013.90 1014.01 1014.14 1014.30 1014.49 1014.72 1014.97 1015.24 1015.50 1015.74 1015.95 1016.11 1016.21 1016.27 1016.28 1016.27 1016.25 1016.22 1016.22 1016.23 1016.25 1016.28 1016.30 1016.30 1016.26 1016.17 1016.02 1015.83 1015.58 1015.32 1015.03 1014.74
1014.84 1014.50 1014.18 1013.91 1013.71 1013.57 1013.49 1013.46 1013.47 1013.51 1013.57 1013.66 1013.76 1013.88 1014.03 1014.21 1014.40 1014.61 1014.83 1015.03 1015.21 1015.35 1015.45 1015.51 1015.53 1015.52 1015.50 1015.48 1015.48 1015.50 1015.54 1015.61 1015.68 1015.74 1015.78 1015.77 1015.71 1015.61 1015.44 1015.23 1014.99 1014.73 1014.46
1014.70 1014.35 1014.02 1013.75 1013.53 1013.38 1013.29 1013.24 1013.24 1013.28 1013.33 1013.41 1013.51 1013.62 1013.75 1013.90 1014.06 1014.22 1014.38 1014.52 1014.63 1014.70 1014.74 1014.75 1014.73 1014.69 1014.66 1014.65 1014.66 1014.71 1014.79 1014.89 1015.00 1015.11 1015.19 1015.23 1015.21 1015.14 1015.02 1014.85 1014.65 1014.42 1014.17
Thickness
5608 5609 5610 5610 5611 5611 5612 5613 5615 5616 5618 5618 5619 5619 5620 5620 5620 5620 5621 5621 5621 5620 5620 5620 5620 5619 5619 5618 5618 5619 5619 5619 5619 5620 5621 5624 5625 5625 5626 5626 5626 5626 5626
5600 5601 5602 5602 5603 5604 5605 5606 5608 5609 5610 5611 5610 5610 5610 5611 5610 5610 5611 5611 5612 5611 5611 5610 5610 5610 5609 5608 5608 5608 5608 5608 5608 5607 5608 5611 5613 5614 5616 5615 5615 5615 5616
5595 5595 5595 5595 5595 5596 5598 5601 5601 5601 5602 5602 5602 5602 5601 5601 5600 5600 5600 5601 5602 5602 5601 5602 5601 5599 5599 5598 5597 5597 5597 5597 5596 5595 5595 5597 5600 5600 5603 5604 5604 5604 5605
5590 5589 5589 5589 5589 5590 5591 5592 5593 5594 5594 5594 5593 5592 5590 5589 5590 5590 5591 5592 5593 5593 5592 5592 5591 5590 5589 5588 5588 5587 5587 5587 5586 5585 5585 5584 5585 5585 5592 5593 5593 5593 5593
5583 5584 5584 5584 5584 5583 5583 5584 5585 5586 5586 5585 5585 5583 5582 5581 5581 5582 5582 5582 5583 5583 5583 5582 5582 5580 5580 5579 5578 5578 5577 5577 5576 5575 5575 5575 5574 5574 5576 5582 5582 5582 5583
5578 5578 5577 5577 5576 5575 5575 5576 5577 5577 5577 5576 5576 5575 5574 5573 5573 5573 5573 5573 5573 5573 5573 5573 5572 5571 5570 5570 5569 5568 5567 5567 5566 5566 5565 5564 5564 5564 5564 5568 5570 5571 5573
5570 5570 5569 5569 5568 5568 5568 5568 5568 5569 5569 5569 5568 5568 5567 5566 5565 5564 5564 5563 5563 5563 5563 5563 5563 5562 5561 5560 5559 5559 5558 5557 5557 5556 5555 5554 5554 5554 5554 5555 5558 5559 5562
5563 5563 5563 5563 5562 5562 5561 5560 5561 5561 5562 5561 5560 5560 5559 5558 5557 5556 5555 5554 5554 5554 5554 5554 5553 5552 5552 5551 5550 5549 5549 5548 5546 5546 5545 5544 5543 5543 5543 5543 5544 5547 5551
5558 5558 5557 5556 5555 5555 5554 5554 5554 5554 5554 5553 5552 5551 5550 5549 5548 5547 5547 5546 5545 5545 5545 5544 5544 5543 5542 5541 5541 5539 5538 5537 5536 5535 5534 5533 5533 5533 5532 5532 5532 5533 5537
5552 5552 5551 5550 5549 5549 5548 5546 5546 5546 5546 5545 5544 5544 5542 5541 5540 5539 5538 5537 5536 5536 5535 5535 5534 5533 5532 5532 5531 5529 5528 5527 5526 5525 5524 5523 5523 5522 5522 5522 5521 5521 5522
5545 5545 5544 5544 5542 5541 5540 5539 5539 5539 5539 5538 5536 5535 5534 5533 5532 5531 5530 5528 5527 5527 5526 5525 5524 5524 5523 5522 5521 5519 5518 5517 5516 5515 5514 5514 5513 5512 5511 5511 5511 5510 5510
5539 5538 5537 5535 5534 5533 5533 5532 5532 5532 5531 5530 5529 5528 5526 5524 5523 5522 5521 5520 5519 5518 5517 5516 5515 5514 5514 5513 5512 5510 5509 5508 5506 5505 5504 5503 5503 5502 5501 5501 5500 5500 5498
5534 5531 5529 5528 5527 5526 5525 5525 5524 5524 5523 5522 5521 5520 5518 5516 5515 5514 5513 5513 5511 5510 5509 5508 5506 5505 5504 5503 5502 5501 5500 5498 5497 5496 5495 5494 5493 5492 5491 5491 5490 5489 5489
5528 5526 5523 5521 5520 5519 5518 5518 5517 5516 5515 5514 5513 5511 5510 5509 5508 5507 5506 5505 5503 5502 5500 5499 5498 5496 5495 5494 5493 5491 5490 5489 5488 5487 5486 5485 5484 5483 5482 5481 5480 5479 5478
5523 5521 5518 5515 5513 5512 5511 5510 5509 5508 5507 5505 5504 5504 5503 5501 5500 5499 5498 5496 5495 5493 5492 5490 5488 5487 5486 5485 5483 5482 5480 5479 5478 5477 5476 5476 5475 5474 5473 5472 5470 5469 5467
5518 5516 5513 5510 5508 5506 5504 5503 5501 5501 5499 5497 5496 5495 5494 5493 5492 5491 5489 5487 5486 5484 5482 5481 5479 5478 5477 5476 5475 5473 5471 5469 5467 5467 5466 5466 5465 5465 5464 5463 5461 5459 5457
5511 5509 5507 5505 5502 5500 5498 5496 5495 5493 5491 5490 5489 5487 5486 5485 5484 5483 5481 5479 5477 5475 5473 5471 5469 5468 5466 5466 5465 5463 5461 5459 5457 5457 5456 5456 5456 5455 5453 5452 5451 5449 5448
5504 5502 5500 5498 5496 5493 5491 5489 5487 5485 5483 5482 5481 5480 5478 5477 5475 5473 5472 5470 5468 5466 5464 5462 5460 5458 5456 5456 5455 5453 5451 5449 5448 5446 5445 5444 5444 5443 5442 5441 5440 5438 5436
5497 5495 5493 5491 5488 5486 5484 5482 5479 5477 5475 5474 5473 5473 5471 5469 5467 5465 5464 5462 5459 5457 5455 5453 5451 5448 5446 5445 5444 5443 5440 5438 5437 5436 5434 5433 5432 5432 5432 5430 5429 5428 5427
5489 5487 5485 5483 5480 5478 5476 5473 5471 5469 5468 5468 5467 5465 5463 5461 5459 5458 5456 5454 5451 5449 5446 5444 5441 5439 5436 5435 5434 5433 5430 5428 5426 5425 5424 5423 5422 5421 5420 5418 5418 5416 5416
5481 5479 5477 5474 5473 5470 5467 5465 5464 5463 5463 5462 5460 5458 5456 5454 5452 5450 5448 5446 5443 5440 5437 5434 5432 5429 5427 5425 5424 5422 5419 5417 5415 5414 5413 5412 5411 5410 5409 5408 5406 5405 5404
5473 5471 5468 5467 5465 5463 5460 5458 5457 5458 5456 5454 5452 5450 5448 5446 5444 5441 5439 5436 5433 5430 5427 5425 5422 5420 5418 5416 5414 5413 5411 5409 5406 5405 5403 5402 5401 5400 5399 5398 5396 5395 5393
5464 5462 5459 5458 5457 5455 5453 5451 5452 5450 5448 5446 5444 5442 5440 5438 5435 5432 5430 5427 5424 5421 5419 5416 5414 5412 5409 5407 5406 5404 5403 5401 5398 5396 5395 5393 5392 5391 5389 5388 5386 5384 5381
5454 5453 5450 5449 5449 5448 5446 5445 5444 5442 5440 5438 5436 5434 5432 5430 5427 5424 5422 5419 5416 5413 5411 5409 5406 5404 5401 5399 5397 5396 5394 5393 5390 5388 5386 5385 5383 5381 5380 5378 5375 5372 5369
5446 5443 5442 5441 5442 5440 5439 5438 5436 5434 5432 5430 5429 5426 5424 5421 5419 5417 5414 5412 5410 5408 5406 5403 5400 5397 5395 5394 5393 5389 5387 5384 5382 5380 5377 5374 5372 5371 5369 5367 5364 5362 5359
5437 5434 5433 5433 5433 5433 5432 5431 5429 5427 5424 5423 5421 5419 5416 5414 5411 5408 5406 5405 5403 5402 5400 5397 5394 5392 5391 5389 5387 5384 5381 5378 5375 5371 5367 5365 5363 5361 5359 5357 5354 5352 5349